Birmingham, AL

2:38 AM CDT on May 23, 2017 (GMT -0500)
Birmingham International

Weather History for KBHM - May, 2013

Change the Weather History Date:

Thursday, May 2, 2013

  Actual Average Record
Temperature  
Mean Temperature 66 °F 67 °F  
Max Temperature 69 °F 78 °F 92 °F (1901)
Min Temperature 62 °F 55 °F 38 °F (1963)
Degree Days  
Heating Degree Days 0 2  
Month to date heating degree days 0 4  
Since 1 July heating degree days 2596 2655  
Cooling Degree Days 1 4  
Month to date cooling degree days 5 8  
Year to date cooling degree days 82 92  
Growing Degree Days 16 (Base 50)    
Moisture  
Dew Point 57 °F    
Average Humidity 73    
Maximum Humidity 78    
Minimum Humidity 67    
Precipitation  
Precipitation 0.00 in 0.16 in 1.95 in (1964)
Month to date precipitation 0.00 0.32  
Year to date precipitation 24.55 19.30  
Snow  
Snow 0.00 in 0.00 in - ()
Month to date snowfall 0.0 0.0  
Since 1 July snowfall 2.1 1.6  
Snow Depth 0.00 in    
Sea Level Pressure  
Sea Level Pressure 30.09 in    
Wind  
Wind Speed 9 mph (ENE)    
Max Wind Speed 16 mph    
Max Gust Speed 26 mph    
Visibility 10 miles    
Events      
T = Trace of Precipitation, MM = Missing Value Source: NWS Daily Summary

Daily Weather History Graph

Daily Weather History Graph

Search for Another Location

Airport or City:

Trip Planner

Search our weather history database for the weather conditions in past years. The results will help you decide how hot, cold, wet, or windy it might be!

Date:

Astronomy

May. 02, 2013 Rise Set
Actual Time 5:57 AM CDT 7:31 PM CDT
Civil Twilight 5:30 AM CDT 7:57 PM CDT
Nautical Twilight 4:58 AM CDT 8:29 PM CDT
Astronomical Twilight 4:25 AM CDT 9:03 PM CDT
Moon 1:22 AM CDT (5/2) 12:40 PM CDT (5/2)
Length of Visible Light 14h 26m
Length of Day
13h 33m
Waning Gibbous, 47% of the Moon is Illuminated
May 2
Waning Gibbous
May 9
New
May 17
First Quarter
May 24
Full
May 31
Last Quarter

Hourly Weather History & Observations

Time (CDT) Temp. Dew Point Humidity Pressure Visibility Wind Dir Wind Speed Gust Speed Precip Events Conditions
12:53 AM 64.0 °F 53.1 °F 67% 30.09 in 10.0 mi East 11.5 mph - N/A   Partly Cloudy
1:53 AM 63.0 °F 53.1 °F 70% 30.08 in 10.0 mi East 11.5 mph 25.3 mph N/A   Mostly Cloudy
2:53 AM 62.1 °F 54.0 °F 75% 30.08 in 10.0 mi East 10.4 mph 21.9 mph N/A   Mostly Cloudy
3:53 AM 62.1 °F 54.0 °F 75% 30.07 in 10.0 mi East 8.1 mph 19.6 mph N/A   Overcast
4:53 AM 62.1 °F 54.0 °F 75% 30.06 in 10.0 mi East 10.4 mph 19.6 mph N/A   Overcast
5:53 AM 62.1 °F 54.0 °F 75% 30.07 in 10.0 mi East 9.2 mph 16.1 mph N/A   Mostly Cloudy
6:49 AM 62.6 °F 53.6 °F 72% 30.10 in 10.0 mi East 10.4 mph - N/A   Mostly Cloudy
6:53 AM 62.1 °F 54.0 °F 75% 30.09 in 10.0 mi East 10.4 mph - N/A   Mostly Cloudy
7:53 AM 63.0 °F 55.0 °F 75% 30.11 in 10.0 mi East 8.1 mph 19.6 mph N/A   Overcast
8:53 AM 64.0 °F 55.9 °F 75% 30.12 in 10.0 mi East 5.8 mph - N/A   Overcast
9:53 AM 64.0 °F 57.0 °F 78% 30.13 in 10.0 mi East 5.8 mph - N/A   Overcast
10:53 AM 66.0 °F 57.9 °F 75% 30.14 in 10.0 mi Variable 5.8 mph 16.1 mph N/A   Overcast
11:53 AM 66.9 °F 57.9 °F 73% 30.13 in 10.0 mi East 10.4 mph - N/A   Overcast
12:53 PM 66.9 °F 57.9 °F 73% 30.12 in 10.0 mi East 8.1 mph 17.3 mph N/A   Overcast
1:53 PM 66.9 °F 59.0 °F 76% 30.11 in 10.0 mi East 11.5 mph 17.3 mph N/A   Overcast
2:53 PM 68.0 °F 59.0 °F 73% 30.10 in 10.0 mi East 11.5 mph 17.3 mph N/A   Overcast
3:24 PM 68.0 °F 59.0 °F 73% 30.10 in 10.0 mi ENE 10.4 mph - N/A   Overcast
3:39 PM 68.0 °F 59.0 °F 73% 30.10 in 10.0 mi ENE 8.1 mph - N/A   Overcast
3:53 PM 68.0 °F 59.0 °F 73% 30.08 in 10.0 mi East 9.2 mph 17.3 mph N/A   Overcast
4:07 PM 69.8 °F 59.0 °F 68% 30.09 in 10.0 mi ENE 9.2 mph - N/A   Overcast
4:44 PM 66.2 °F 59.0 °F 78% 30.09 in 10.0 mi ENE 9.2 mph - N/A   Overcast
4:51 PM 66.2 °F 59.0 °F 78% 30.09 in 10.0 mi ENE 6.9 mph - N/A   Overcast
4:53 PM 66.9 °F 59.0 °F 76% 30.07 in 10.0 mi ENE 9.2 mph - N/A   Overcast
5:53 PM 68.0 °F 59.0 °F 73% 30.06 in 10.0 mi NE 10.4 mph - N/A   Scattered Clouds
6:53 PM 66.9 °F 59.0 °F 76% 30.06 in 10.0 mi ENE 8.1 mph - N/A   Clear
7:53 PM 66.0 °F 59.0 °F 78% 30.05 in 10.0 mi NE 8.1 mph - N/A   Clear
8:53 PM 66.0 °F 59.0 °F 78% 30.06 in 10.0 mi ENE 6.9 mph - N/A   Clear
9:53 PM 66.0 °F 59.0 °F 78% 30.07 in 10.0 mi East 9.2 mph 19.6 mph N/A   Clear
10:53 PM 66.0 °F 57.0 °F 73% 30.06 in 10.0 mi East 9.2 mph - N/A   Clear
11:53 PM 64.9 °F 57.0 °F 75% 30.06 in 10.0 mi East 5.8 mph 16.1 mph N/A   Partly Cloudy